Retour au catalogue

FOSSASAT2E20

TAT-O

ActifCommunicationsSSO
NORAD 63003·PAYLOAD·🇪🇸 Spain

Lancé Jan 14, 2025 depuis Vandenberg Space Force Base

Loading…

Prochains Passages (prochaines 24 heures)

TLE

FraisSource: Space-Track

Époque: Sep 14, 2026, 12:23 UTC

1 63003U 25009DN  26257.51621997  .00010942  00000-0  35919-3 0  9996
2 63003  97.3096 332.1043 0003278  40.3939 319.7546 15.31753251150174

Suivez FOSSASAT2E20 en temps réel avec AllMySat

Download on the App Store